Location: Unspecified
(0.0000°N, 0.0000°E)
Time: 11:07:06
(UTC+01:00)

Cosmos 2369 Rocket - Visible Passes

Search period start: 14 February 2016 00:00
Search period end: 24 February 2016 00:00
Orbit: 829 x 852 km, 71.0° (Epoch: 12 February)

Date Brightness Start Highest point End Pass type
(mag) Time Alt. Az. Time Alt. Az. Time Alt. Az.
14 Feb 2.6 21:04:01 10° NNW 21:09:37 63° WSW 21:15:16 10° S visible
15 Feb 2.5 20:48:41 10° NNW 20:54:19 68° WSW 20:59:59 10° S visible
16 Feb 2.4 20:33:21 10° NNW 20:39:01 74° WSW 20:44:43 10° S visible
17 Feb 2.3 20:18:01 10° NNW 20:23:42 80° WSW 20:29:25 10° SSE visible
18 Feb 2.3 20:02:42 10° NNW 20:08:24 86° WSW 20:14:07 10° SSE visible
19 Feb 2.2 19:47:24 10° NNW 19:53:06 88° ENE 19:58:49 10° SSE visible
20 Feb 2.2 19:32:06 10° NNW 19:37:47 82° ENE 19:43:30 10° SSE visible
21 Feb 5.2 06:34:18 10° SSE 06:38:20 20° ESE 06:42:19 10° ENE visible
22 Feb 5.2 06:19:13 10° SSE 06:23:01 19° ESE 06:26:48 10° ENE visible
23 Feb 5.2 06:04:09 10° SE 06:07:42 17° ESE 06:11:14 10° ENE visible
